Location: Landeleau
(48.2273°N, 3.7285°W)
Time: 17:37:29
(UTC+00:00)

Cosmos 1626 - Pass Details

Date: 30 March 2020
Orbit: 493 x 494 km, 82.5° (Epoch: 25 May)

Event Time Altitude Azimuth Distance (km) Brightness Sun altitude
Rises 20:02:52 0° 345° (NNW) 2,588 6.3 -13.6°
Reaches altitude 10° 20:05:01 10° 340° (NNW) 1,701 5.4 -14.0°
Maximum altitude 20:08:37 49° 266° (W) 649 3.1 -14.5°
Drops below altitude 10° 20:12:11 10° 190° (S) 1,687 4.7 -15.1°
Sets 20:14:19 0° 185° (S) 2,564 5.5 -15.4°
Enters shadow 20:14:25 - 185° (S) 2,605 5.6 -15.4°
